Weather History for Pine Ridge, SD

Change the Weather History Date:

Thursday, April 10, 2014

  Actual Average Record
Temperature  
Mean Temperature 48 °F 44 °F  
Max Temperature 60 °F 58 °F 82 °F (2006)
Min Temperature 35 °F 30 °F 10 °F (2013)
Degree Days  
Heating Degree Days 17 21  
Month to date heating degree days 263 222  
Since 1 July heating degree days 6678 6460  
Cooling Degree Days 0 0  
Month to date cooling degree days 0 0  
Year to date cooling degree days 0 0  
Moisture  
Dew Point 35 °F    
Average Humidity 64    
Maximum Humidity 92    
Minimum Humidity 36    
Precipitation  
Precipitation 0.01 in 0.06 in 0.44 in (1999)
Month to date precipitation 0.10 0.49  
Year to date precipitation 0.71 2.15  
Sea Level Pressure  
Sea Level Pressure 29.96 in    
Wind  
Wind Speed 7 mph (West)    
Max Wind Speed 32 mph    
Max Gust Speed 43 mph    
Visibility 10 miles    
Events Rain , Thunderstorm    
T = Trace of Precipitation, MM = Missing Value Source: NWS Daily Summary

Daily Weather History Graph

Daily Weather History Graph

Search for Another Location

Airport:

Trip Planner

Search our weather history database for the weather conditions in past years. The results will help you decide how hot, cold, wet, or windy it might be!

Date:

Astronomy

Apr. 10, 2014 Rise Set
Actual Time 6:16 AM MDT 7:26 PM MDT
Civil Twilight 5:47 AM MDT 7:56 PM MDT
Nautical Twilight 5:12 AM MDT 8:31 PM MDT
Astronomical Twilight 4:35 AM MDT 9:08 PM MDT
Moon 3:06 PM MDT (4/10) 3:47 AM MDT (4/10)
Length of Visible Light 14h 08m
Length of Day
13h 10m
Waxing Gibbous, 80% of the Moon is Illuminated
Apr 10
Waxing Gibbous
Apr 15
Full
Apr 22
Last Quarter
Apr 29
New
May 6
First Quarter

Hourly Weather History & Observations

Time (MDT) Temp. Windchill Dew Point Humidity Pressure Visibility Wind Dir Wind Speed Gust Speed Precip Events Conditions
12:52 AM 48.0 °F - 33.1 °F 56% 29.89 in 10.0 mi NE 5.8 mph - 0.00 in   Overcast
1:52 AM 45.0 °F 38.5 °F 33.1 °F 63% 29.92 in 10.0 mi North 13.8 mph 29.9 mph 0.00 in Rain Light Rain
2:52 AM 45.0 °F 41.8 °F 34.0 °F 65% 29.92 in 10.0 mi West 5.8 mph - 0.00 in   Overcast
3:52 AM 45.0 °F 41.2 °F 33.1 °F 63% 29.92 in 10.0 mi WNW 6.9 mph - 0.00 in   Overcast
4:52 AM 45.0 °F 43.5 °F 30.9 °F 58% 29.91 in 10.0 mi NW 3.5 mph - N/A   Overcast
5:52 AM 41.0 °F 36.4 °F 32.0 °F 70% 29.97 in 10.0 mi West 6.9 mph - N/A   Overcast
6:52 AM 42.1 °F 39.2 °F 34.0 °F 73% 29.98 in 10.0 mi SSW 4.6 mph - N/A   Overcast
8:52 AM 50.0 °F - 32.0 °F 50% 30.00 in 10.0 mi WNW 6.9 mph - N/A   Scattered Clouds
9:52 AM 51.1 °F - 34.0 °F 52% 30.01 in 10.0 mi WSW 10.4 mph - N/A   Scattered Clouds
10:52 AM 53.1 °F - 33.1 °F 47% 30.01 in 10.0 mi West 9.2 mph - N/A   Mostly Cloudy
11:52 AM 55.9 °F - 34.0 °F 44% 30.00 in 10.0 mi West 10.4 mph - N/A   Mostly Cloudy
12:52 PM 55.0 °F - 34.0 °F 45% 29.98 in 10.0 mi WSW 13.8 mph - N/A   Mostly Cloudy
1:52 PM 54.0 °F - 30.9 °F 41% 29.97 in 10.0 mi SSW 5.8 mph - N/A   Overcast
2:52 PM 57.0 °F - 30.0 °F 36% 29.94 in 10.0 mi Calm Calm - N/A   Partly Cloudy
3:52 PM 57.9 °F - 34.0 °F 41% 29.92 in 10.0 mi SW 10.4 mph - N/A   Clear
4:52 PM 57.9 °F - 37.0 °F 46% 29.92 in 10.0 mi West 9.2 mph - N/A   Mostly Cloudy
5:52 PM 57.0 °F - 37.9 °F 49% 29.93 in 10.0 mi WSW 8.1 mph - N/A   Clear
6:52 PM 55.9 °F - 34.0 °F 44% 29.96 in 10.0 mi West 13.8 mph 32.2 mph 0.00 in Rain Light Rain
7:04 PM 48.9 °F - 42.1 °F 77% 29.97 in 8.0 mi West 21.9 mph 42.6 mph 0.00 in Rain , Thunderstorm Light Rain
7:19 PM 46.9 °F - 42.1 °F 83% 29.93 in 10.0 mi West 4.6 mph - 0.01 in Rain Light Rain
7:52 PM 44.1 °F 38.6 °F 41.0 °F 89% 29.96 in 10.0 mi SSW 10.4 mph - 0.01 in   Partly Cloudy
8:52 PM 44.1 °F - 39.9 °F 85% 29.97 in 10.0 mi Calm Calm - N/A   Clear
9:52 PM 42.1 °F 40.2 °F 39.0 °F 89% 29.98 in 10.0 mi West 3.5 mph - N/A   Clear
10:52 PM 39.0 °F 35.7 °F 37.0 °F 93% 29.99 in 10.0 mi WSW 4.6 mph - N/A   Clear
11:52 PM 36.0 °F - 34.0 °F 93% 29.99 in 10.0 mi Calm Calm - N/A   Clear